Time,TemperatureF,DewpointF,PressureIn,WindDirection,WindDirectionDegrees,WindSpeedMPH,WindSpeedGustMPH,Humidity,HourlyPrecipIn,Conditions,Clouds,dailyrainin,SoftwareType,DateUTC
2013-08-06 00:14:00,77.5,66.0,30.07,ESE,110,7.0,12.0,68,0.00,,,0.00,weatherlink.com 1.10,2013-08-06 04:14:00,
2013-08-06 00:29:00,77.5,67.0,30.07,ESE,120,6.0,11.0,69,0.00,,,0.00,weatherlink.com 1.10,2013-08-06 04:29:00,
2013-08-06 00:44:00,77.7,65.0,30.07,SE,136,7.0,11.0,64,0.00,,,0.00,weatherlink.com 1.10,2013-08-06 04:44:00,
2013-08-06 00:59:00,77.5,66.0,30.07,SE,136,9.0,10.0,68,0.00,,,0.00,weatherlink.com 1.10,2013-08-06 04:59:00,
2013-08-06 01:14:00,77.5,67.0,30.07,SE,127,7.0,9.0,69,0.00,,,0.00,weatherlink.com 1.10,2013-08-06 05:14:00,
2013-08-06 01:29:00,77.3,68.0,30.06,ESE,110,6.0,8.0,73,0.00,,,0.00,weatherlink.com 1.10,2013-08-06 05:29:00,
2013-08-06 01:45:00,77.4,68.0,30.05,SE,136,7.0,9.0,72,0.00,,,0.00,weatherlink.com 1.10,2013-08-06 05:45:00,
2013-08-06 02:00:00,77.5,67.0,30.05,SW,219,2.0,9.0,71,0.00,,,0.00,weatherlink.com 1.10,2013-08-06 06:00:00,
2013-08-06 02:15:00,77.4,67.0,30.05,SE,142,8.0,9.0,71,0.00,,,0.00,weatherlink.com 1.10,2013-08-06 06:15:00,
2013-08-06 02:30:00,77.4,66.0,30.05,South,191,4.0,7.0,68,0.00,,,0.00,weatherlink.com 1.10,2013-08-06 06:30:00,
2013-08-06 02:45:00,77.3,66.0,30.05,SSE,153,2.0,6.0,69,0.00,,,0.00,weatherlink.com 1.10,2013-08-06 06:45:00,
2013-08-06 03:00:00,77.4,67.0,30.04,SSE,159,5.0,7.0,70,0.00,,,0.00,weatherlink.com 1.10,2013-08-06 07:00:00,
2013-08-06 03:15:00,77.3,66.0,30.04,SSE,157,2.0,6.0,68,0.00,,,0.00,weatherlink.com 1.10,2013-08-06 07:15:00,
2013-08-06 03:30:00,77.1,66.0,30.04,SSE,162,4.0,5.0,69,0.00,,,0.00,weatherlink.com 1.10,2013-08-06 07:30:00,
2013-08-06 03:45:00,77.2,66.0,30.04,SE,129,2.0,5.0,68,0.00,,,0.00,weatherlink.com 1.10,2013-08-06 07:45:00,
2013-08-06 04:00:00,77.1,66.0,30.03,South,174,1.0,5.0,68,0.00,,,0.00,weatherlink.com 1.10,2013-08-06 08:00:00,
2013-08-06 04:15:00,77.1,65.0,30.03,SSE,155,0.0,4.0,67,0.00,,,0.00,weatherlink.com 1.10,2013-08-06 08:15:00,
2013-08-06 04:30:00,73.1,65.0,30.03,NW,307,2.0,2.0,75,0.00,,,0.00,weatherlink.com 1.10,2013-08-06 08:30:00,
2013-08-06 04:45:00,70.5,64.0,30.03,NW,307,2.0,2.0,80,0.00,,,0.00,weatherlink.com 1.10,2013-08-06 08:45:00,
2013-08-06 05:00:00,69.6,64.0,30.03,NW,307,0.0,2.0,82,0.00,,,0.00,weatherlink.com 1.10,2013-08-06 09:00:00,
2013-08-06 05:15:00,69.8,64.0,30.03,NW,307,0.0,0.0,83,0.00,,,0.00,weatherlink.com 1.10,2013-08-06 09:15:00,
2013-08-06 05:30:00,71.2,66.0,30.03,North,10,1.0,1.0,83,0.00,,,0.00,weatherlink.com 1.10,2013-08-06 09:30:00,
2013-08-06 05:45:00,76.5,67.0,30.03,SE,134,5.0,7.0,72,0.00,,,0.00,weatherlink.com 1.10,2013-08-06 09:45:00,
2013-08-06 06:00:00,77.2,67.0,30.03,SE,144,3.0,6.0,71,0.00,,,0.00,weatherlink.com 1.10,2013-08-06 10:00:00,
2013-08-06 06:15:00,72.9,65.0,30.04,NW,318,3.0,3.0,76,0.00,,,0.00,weatherlink.com 1.10,2013-08-06 10:15:00,
2013-08-06 06:30:00,71.5,65.0,30.04,NW,307,2.0,3.0,81,0.00,,,0.00,weatherlink.com 1.10,2013-08-06 10:30:00,
2013-08-06 06:45:00,70.7,66.0,30.05,NW,306,2.0,3.0,84,0.00,,,0.00,weatherlink.com 1.10,2013-08-06 10:45:00,
2013-08-06 07:00:00,70.6,65.0,30.05,NW,319,1.0,4.0,83,0.00,,,0.00,weatherlink.com 1.10,2013-08-06 11:00:00,
2013-08-06 07:15:00,71.6,66.0,30.05,North,354,1.0,3.0,83,0.00,,,0.00,weatherlink.com 1.10,2013-08-06 11:15:00,
2013-08-06 07:30:00,72.4,67.0,30.07,NNW,330,2.0,3.0,83,0.00,,,0.00,weatherlink.com 1.10,2013-08-06 11:30:00,
2013-08-06 07:45:00,73.2,67.0,30.07,NNE,27,1.0,5.0,82,0.00,,,0.00,weatherlink.com 1.10,2013-08-06 11:45:00,
2013-08-06 08:00:00,72.9,68.0,30.08,NNW,331,2.0,4.0,83,0.00,,,0.00,weatherlink.com 1.10,2013-08-06 12:00:00,
2013-08-06 08:15:00,73.1,68.0,30.08,NNW,338,2.0,4.0,84,0.00,,,0.00,weatherlink.com 1.10,2013-08-06 12:15:00,
2013-08-06 08:30:00,75.4,70.0,30.08,NNE,32,1.0,3.0,82,0.00,,,0.00,weatherlink.com 1.10,2013-08-06 12:30:00,
2013-08-06 08:45:00,76.5,70.0,30.08,NE,38,4.0,5.0,80,0.00,,,0.00,weatherlink.com 1.10,2013-08-06 12:45:00,
2013-08-06 09:00:00,76.9,70.0,30.07,NE,49,4.0,5.0,78,0.00,,,0.00,weatherlink.com 1.10,2013-08-06 13:00:00,
2013-08-06 09:15:00,77.4,70.0,30.07,ENE,60,4.0,6.0,78,0.00,,,0.00,weatherlink.com 1.10,2013-08-06 13:15:00,
2013-08-06 09:30:00,77.6,69.0,30.07,ENE,77,3.0,5.0,75,0.00,,,0.00,weatherlink.com 1.10,2013-08-06 13:30:00,
2013-08-06 09:45:00,77.9,69.0,30.08,East,89,3.0,4.0,74,0.00,,,0.00,weatherlink.com 1.10,2013-08-06 13:45:00,
2013-08-06 10:00:00,78.5,69.0,30.08,ENE,71,4.0,4.0,72,0.00,,,0.00,weatherlink.com 1.10,2013-08-06 14:00:00,
2013-08-06 10:15:00,78.6,69.0,30.08,ENE,73,4.0,5.0,73,0.00,,,0.00,weatherlink.com 1.10,2013-08-06 14:15:00,
2013-08-06 10:30:00,78.9,68.0,30.08,East,86,3.0,4.0,70,0.00,,,0.00,weatherlink.com 1.10,2013-08-06 14:30:00,
2013-08-06 10:45:00,79.3,68.0,30.09,ENE,71,3.0,4.0,69,0.00,,,0.00,weatherlink.com 1.10,2013-08-06 14:45:00,
2013-08-06 11:00:00,79.5,70.0,30.08,East,85,3.0,5.0,72,0.00,,,0.00,weatherlink.com 1.10,2013-08-06 15:00:00,
2013-08-06 11:15:00,80.5,67.0,30.08,ESE,117,2.0,6.0,64,0.00,,,0.00,weatherlink.com 1.10,2013-08-06 15:15:00,
2013-08-06 11:30:00,80.1,67.0,30.09,ENE,69,3.0,5.0,65,0.00,,,0.00,weatherlink.com 1.10,2013-08-06 15:30:00,
2013-08-06 11:45:00,80.2,67.0,30.09,NE,55,4.0,5.0,65,0.00,,,0.00,weatherlink.com 1.10,2013-08-06 15:45:00,
2013-08-06 12:01:00,80.0,69.0,30.09,ENE,65,3.0,5.0,68,0.00,,,0.00,weatherlink.com 1.10,2013-08-06 16:01:00,
2013-08-06 12:16:00,80.4,68.0,30.10,ENE,72,1.0,5.0,67,0.00,,,0.00,weatherlink.com 1.10,2013-08-06 16:16:00,
2013-08-06 12:31:00,80.5,69.0,30.10,NE,42,4.0,6.0,68,0.00,,,0.00,weatherlink.com 1.10,2013-08-06 16:31:00,
2013-08-06 12:46:00,80.4,69.0,30.10,NE,51,2.0,5.0,68,0.00,,,0.00,weatherlink.com 1.10,2013-08-06 16:46:00,
2013-08-06 13:01:00,80.1,70.0,30.09,ENE,59,5.0,6.0,71,0.00,,,0.00,weatherlink.com 1.10,2013-08-06 17:01:00,
2013-08-06 13:16:00,79.9,70.0,30.09,ENE,72,7.0,8.0,71,0.00,,,0.00,weatherlink.com 1.10,2013-08-06 17:16:00,
2013-08-06 13:31:00,80.1,69.0,30.10,East,86,6.0,9.0,69,0.00,,,0.00,weatherlink.com 1.10,2013-08-06 17:31:00,
2013-08-06 13:46:00,80.3,69.0,30.10,East,82,6.0,10.0,69,0.00,,,0.00,weatherlink.com 1.10,2013-08-06 17:46:00,
2013-08-06 14:01:00,80.5,69.0,30.09,East,82,7.0,10.0,68,0.00,,,0.00,weatherlink.com 1.10,2013-08-06 18:01:00,
2013-08-06 14:16:00,80.8,69.0,30.09,East,92,6.0,9.0,68,0.00,,,0.00,weatherlink.com 1.10,2013-08-06 18:16:00,
2013-08-06 14:31:00,81.2,70.0,30.09,SE,124,3.0,8.0,69,0.00,,,0.00,weatherlink.com 1.10,2013-08-06 18:31:00,
2013-08-06 14:46:00,81.4,70.0,30.08,SE,132,6.0,9.0,68,0.00,,,0.00,weatherlink.com 1.10,2013-08-06 18:46:00,
2013-08-06 15:01:00,81.7,69.0,30.08,ESE,117,8.0,11.0,66,0.00,,,0.00,weatherlink.com 1.10,2013-08-06 19:01:00,
2013-08-06 15:16:00,81.6,70.0,30.07,SE,127,7.0,12.0,67,0.00,,,0.00,weatherlink.com 1.10,2013-08-06 19:16:00,
2013-08-06 15:31:00,81.9,72.0,30.07,SE,131,10.0,12.0,71,0.00,,,0.00,weatherlink.com 1.10,2013-08-06 19:31:00,
2013-08-06 15:46:00,81.7,71.0,30.07,SE,146,12.0,14.0,71,0.00,,,0.00,weatherlink.com 1.10,2013-08-06 19:46:00,
2013-08-06 16:01:00,81.8,72.0,30.07,SSE,151,9.0,12.0,72,0.00,,,0.00,weatherlink.com 1.10,2013-08-06 20:01:00,
2013-08-06 16:16:00,81.7,71.0,30.08,SE,144,7.0,12.0,70,0.00,,,0.00,weatherlink.com 1.10,2013-08-06 20:16:00,
2013-08-06 16:31:00,81.4,70.0,30.08,SSE,155,7.0,11.0,69,0.00,,,0.00,weatherlink.com 1.10,2013-08-06 20:31:00,
2013-08-06 16:46:00,81.0,70.0,30.08,ESE,122,8.0,11.0,70,0.00,,,0.00,weatherlink.com 1.10,2013-08-06 20:46:00,
2013-08-06 17:01:00,81.4,71.0,30.07,SE,132,10.0,11.0,70,0.00,,,0.00,weatherlink.com 1.10,2013-08-06 21:01:00,
2013-08-06 17:16:00,81.4,71.0,30.07,South,169,8.0,11.0,70,0.00,,,0.00,weatherlink.com 1.10,2013-08-06 21:16:00,
2013-08-06 17:31:00,81.7,70.0,30.07,SE,130,7.0,10.0,68,0.00,,,0.00,weatherlink.com 1.10,2013-08-06 21:31:00,
2013-08-06 17:46:00,81.6,71.0,30.07,South,173,4.0,10.0,70,0.00,,,0.00,weatherlink.com 1.10,2013-08-06 21:46:00,
2013-08-06 18:01:00,81.5,70.0,30.07,SE,129,8.0,11.0,67,0.00,,,0.00,weatherlink.com 1.10,2013-08-06 22:01:00,
2013-08-06 18:16:00,81.4,70.0,30.07,SSE,158,6.0,10.0,69,0.00,,,0.00,weatherlink.com 1.10,2013-08-06 22:16:00,
2013-08-06 18:46:00,81.2,69.0,30.07,SE,127,8.0,10.0,67,0.00,,,0.00,weatherlink.com 1.10,2013-08-06 22:46:00,
2013-08-06 19:01:00,81.2,68.0,30.07,ESE,121,4.0,10.0,65,0.00,,,0.00,weatherlink.com 1.10,2013-08-06 23:01:00,
2013-08-06 19:16:00,80.8,68.0,30.07,SE,146,5.0,12.0,65,0.00,,,0.00,weatherlink.com 1.10,2013-08-06 23:16:00,
2013-08-06 19:31:00,80.4,68.0,30.07,SE,127,7.0,10.0,66,0.00,,,0.00,weatherlink.com 1.10,2013-08-06 23:31:00,
2013-08-06 19:46:00,80.1,69.0,30.08,SE,130,7.0,9.0,69,0.00,,,0.00,weatherlink.com 1.10,2013-08-06 23:46:00,
2013-08-06 20:01:00,79.9,69.0,30.08,SSE,148,8.0,9.0,70,0.00,,,0.00,weatherlink.com 1.10,2013-08-07 00:01:00,
2013-08-06 20:16:00,79.9,69.0,30.08,SE,132,6.0,10.0,70,0.00,,,0.00,weatherlink.com 1.10,2013-08-07 00:16:00,
2013-08-06 20:31:00,79.8,69.0,30.08,SE,132,7.0,10.0,70,0.00,,,0.00,weatherlink.com 1.10,2013-08-07 00:31:00,
2013-08-06 20:46:00,79.7,70.0,30.09,SE,136,9.0,9.0,71,0.00,,,0.00,weatherlink.com 1.10,2013-08-07 00:46:00,
2013-08-06 21:01:00,79.8,70.0,30.09,SSE,158,6.0,10.0,72,0.00,,,0.00,weatherlink.com 1.10,2013-08-07 01:01:00,
2013-08-06 21:16:00,79.7,70.0,30.09,SW,217,4.0,9.0,73,0.00,,,0.00,weatherlink.com 1.10,2013-08-07 01:16:00,
2013-08-06 21:31:00,79.5,70.0,30.09,SSE,163,5.0,10.0,72,0.00,,,0.00,weatherlink.com 1.10,2013-08-07 01:31:00,
2013-08-06 21:46:00,79.4,70.0,30.10,SE,129,3.0,7.0,72,0.00,,,0.00,weatherlink.com 1.10,2013-08-07 01:46:00,
2013-08-06 22:01:00,79.4,70.0,30.10,SSW,199,5.0,8.0,73,0.00,,,0.00,weatherlink.com 1.10,2013-08-07 02:01:00,
2013-08-06 22:16:00,79.4,70.0,30.10,South,176,4.0,10.0,72,0.00,,,0.00,weatherlink.com 1.10,2013-08-07 02:16:00,
2013-08-06 22:31:00,79.3,70.0,30.10,SSE,147,5.0,7.0,74,0.00,,,0.00,weatherlink.com 1.10,2013-08-07 02:31:00,
2013-08-06 22:47:00,79.2,70.0,30.10,ENE,68,6.0,7.0,73,0.00,,,0.00,weatherlink.com 1.10,2013-08-07 02:47:00,
2013-08-06 23:01:00,79.2,69.0,30.10,SE,130,3.0,8.0,71,0.00,,,0.00,weatherlink.com 1.10,2013-08-07 03:01:00,
2013-08-06 23:16:00,79.2,70.0,30.10,South,179,4.0,7.0,73,0.00,,,0.00,weatherlink.com 1.10,2013-08-07 03:16:00,
2013-08-06 23:31:00,79.2,70.0,30.10,SSE,156,4.0,6.0,73,0.00,,,0.00,weatherlink.com 1.10,2013-08-07 03:31:00,
2013-08-06 23:46:00,79.3,70.0,30.10,East,91,2.0,7.0,74,0.00,,,0.00,weatherlink.com 1.10,2013-08-07 03:46:00,